Simultaneous Nadir Overpasses (SNOs) Predictions

Prediction of SNOs between GOES-16 and NOAA-19 Satellite Orbit:

Table of predicted SNOs for the next 14.0 days since TLE Epoch: 11/11/2023
Index Date Time (GOES-16) GOES-16 Lat,Lon NOAA-19 Lat,Lon Distance(km) Time Diff (sec)
1 11/12/2023 14:03:06 -0.06, -75.23 0.35, -77.08 210.48 80
2 11/13/2023 13:48:17 -0.06, -75.23 -0.29, -74.12 127.07 80
3 11/14/2023 13:36:10 -0.05, -75.24 -1.00, -71.17 464.59 80
4 11/16/2023 02:10:54 0.05, -75.22 -0.79, -78.86 415.14 80
5 11/17/2023 01:58:46 0.04, -75.23 -0.10, -75.91 77.66 80
6 11/18/2023 01:43:59 0.04, -75.23 0.59, -72.96 259.99 80
7 11/20/2023 14:06:25 -0.03, -75.28 0.53, -77.65 271.59 80
8 11/21/2023 13:51:36 -0.03, -75.29 -0.13, -74.70 66.92 80
9 11/22/2023 13:39:29 -0.03, -75.30 -0.85, -71.75 405.47 80
10 11/24/2023 02:14:14 0.03, -75.30 -0.96, -79.44 473.16 80
